• In Uzbekistan
  • List of Countries
  • For 7 days
  • Water Temperature
  • Weather Map
  • Weather Widgets
  • user-avatar
    Login

    Hourly Weather Solden

    Today, 26 January, Sunday

    Time Temperature Precipitation Wind Pressure Humidity
    00:00 -7°C° 0.1 mm 0 mps 580 mmHg 92%
    01:00 -7°C° 0.1 mm 0 mps 580 mmHg 95%
    02:00 -7°C° 0.1 mm 0 mps 580 mmHg 95%
    03:00 -7°C° 0.1 mm 0 mps 580 mmHg 95%
    04:00 -7°C° 0.1 mm 0 mps 579 mmHg 96%
    05:00 -7°C° 0.1 mm 0 mps 579 mmHg 96%
    06:00 -7°C° 0.1 mm 0 mps 579 mmHg 96%
    07:00 -7°C° 0 mm 0 mps 580 mmHg 96%
    08:00 -6°C° 0.1 mm 0 mps 580 mmHg 95%
    09:00 -6°C° 0.1 mm 0 mps 580 mmHg 93%
    10:00 -5°C° 0.1 mm 0 mps 581 mmHg 91%
    11:00 -4°C° 0 mm 0 mps 580 mmHg 90%
    12:00 -4°C° 0 mm 0 mps 580 mmHg 89%
    13:00 -2°C° 0 mm 1 mps 580 mmHg 87%
    14:00 -4°C° 0.1 mm 0 mps 580 mmHg 89%
    15:00 -4°C° 0.1 mm 0 mps 580 mmHg 90%
    16:00 -4°C° 0.1 mm 0 mps 580 mmHg 92%
    17:00 -5°C° 0 mm 0 mps 579 mmHg 92%
    18:00 -6°C° 0 mm 0 mps 579 mmHg 92%
    19:00 -7°C° 0 mm 1 mps 578 mmHg 92%
    20:00 -8°C° 0 mm 1 mps 578 mmHg 90%
    21:00 -8°C° 0 mm 1 mps 578 mmHg 88%
    22:00 -8°C° 0 mm 1 mps 578 mmHg 85%
    23:00 -8°C° 0 mm 1 mps 578 mmHg 84%

    Tomorrow, 27 January, Monday

    Time Temperature Precipitation Wind Pressure Humidity
    00:00 -8°C° 0 mm 1 mps 578 mmHg 82%
    01:00 -8°C° 0 mm 1 mps 578 mmHg 80%
    02:00 -8°C° 0 mm 1 mps 578 mmHg 79%
    03:00 -8°C° 0 mm 1 mps 578 mmHg 78%
    04:00 -8°C° 0 mm 1 mps 577 mmHg 76%
    05:00 -8°C° 0 mm 1 mps 578 mmHg 75%
    06:00 -9°C° 0 mm 1 mps 578 mmHg 75%
    07:00 -9°C° 0 mm 1 mps 578 mmHg 74%
    08:00 -7°C° 0 mm 1 mps 578 mmHg 71%
    09:00 -6°C° 0 mm 0 mps 579 mmHg 68%
    10:00 -5°C° 0 mm 0 mps 580 mmHg 65%
    11:00 -4°C° 0 mm 0 mps 580 mmHg 64%
    12:00 -2°C° 0 mm 1 mps 579 mmHg 64%
    13:00 -1°C° 0 mm 1 mps 579 mmHg 63%
    14:00 -2°C° 0 mm 1 mps 579 mmHg 68%
    15:00 -3°C° 0 mm 1 mps 578 mmHg 73%
    16:00 -4°C° 0 mm 1 mps 577 mmHg 78%
    17:00 -4°C° 0 mm 1 mps 577 mmHg 81%
    18:00 -6°C° 0 mm 1 mps 577 mmHg 84%
    19:00 -7°C° 0 mm 1 mps 576 mmHg 87%
    20:00 -7°C° 0 mm 1 mps 576 mmHg 89%
    21:00 -7°C° 0 mm 1 mps 576 mmHg 91%
    22:00 -7°C° 0 mm 1 mps 575 mmHg 93%
    23:00 -7°C° 0.2 mm 1 mps 575 mmHg 94%

    Day after tomorrow, 28 January, Tuesday

    Time Temperature Precipitation Wind Pressure Humidity
    00:00 -7°C° 0.2 mm 1 mps 574 mmHg 95%
    01:00 -7°C° 0.2 mm 1 mps 574 mmHg 96%
    02:00 -8°C° 0.3 mm 1 mps 573 mmHg 96%
    03:00 -8°C° 0.3 mm 1 mps 573 mmHg 95%
    04:00 -8°C° 0.3 mm 1 mps 572 mmHg 95%
    05:00 -8°C° 0.2 mm 1 mps 572 mmHg 95%
    06:00 -7°C° 0.2 mm 1 mps 571 mmHg 95%
    07:00 -7°C° 0.2 mm 1 mps 571 mmHg 94%
    08:00 -7°C° 0.3 mm 1 mps 571 mmHg 94%
    09:00 -6°C° 0.3 mm 1 mps 571 mmHg 94%
    10:00 -6°C° 0.3 mm 1 mps 571 mmHg 93%
    11:00 -4°C° 0.9 mm 1 mps 571 mmHg 93%
    12:00 -4°C° 0.9 mm 1 mps 570 mmHg 93%
    13:00 -3°C° 0.9 mm 1 mps 570 mmHg 93%
    14:00 -6°C° 1 mm 2 mps 570 mmHg 90%
    15:00 -8°C° 1 mm 3 mps 570 mmHg 87%
    16:00 -8°C° 1 mm 3 mps 570 mmHg 84%
    17:00 -10°C° 0.2 mm 3 mps 569 mmHg 81%
    18:00 -13°C° 0.2 mm 3 mps 569 mmHg 78%
    19:00 -15°C° 0.2 mm 3 mps 569 mmHg 76%
    20:00 -14°C° 0 mm 2 mps 569 mmHg 75%
    21:00 -15°C° 0 mm 2 mps 569 mmHg 74%
    22:00 -15°C° 0 mm 2 mps 569 mmHg 73%
    23:00 -15°C° 0 mm 2 mps 569 mmHg 71%

    29 January, Wednesday

    Time Temperature Precipitation Wind Pressure Humidity
    00:00 -15°C° 0 mm 2 mps 569 mmHg 69%
    01:00 -13°C° 0 mm 1 mps 569 mmHg 68%
    02:00 -13°C° 0.1 mm 1 mps 569 mmHg 69%
    03:00 -12°C° 0.1 mm 1 mps 569 mmHg 71%
    04:00 -11°C° 0.1 mm 1 mps 569 mmHg 73%
    05:00 -12°C° 0.2 mm 1 mps 569 mmHg 76%
    06:00 -12°C° 0.2 mm 1 mps 570 mmHg 79%
    07:00 -12°C° 0.2 mm 1 mps 570 mmHg 82%
    08:00 -13°C° 0.3 mm 2 mps 571 mmHg 80%
    09:00 -12°C° 0.3 mm 2 mps 572 mmHg 79%
    10:00 -10°C° 0.3 mm 2 mps 572 mmHg 77%
    11:00 -10°C° 0.1 mm 3 mps 573 mmHg 70%
    12:00 -10°C° 0.1 mm 3 mps 573 mmHg 62%
    13:00 -9°C° 0.1 mm 3 mps 574 mmHg 55%
    14:00 -9°C° 0 mm 3 mps 574 mmHg 58%
    15:00 -9°C° 0 mm 2 mps 574 mmHg 61%
    16:00 -9°C° 0 mm 2 mps 574 mmHg 64%
    17:00 -12°C° 0 mm 2 mps 574 mmHg 68%
    18:00 -13°C° 0 mm 2 mps 574 mmHg 71%
    19:00 -15°C° 0 mm 2 mps 574 mmHg 75%
    20:00 -15°C° 0 mm 2 mps 574 mmHg 75%
    21:00 -15°C° 0 mm 2 mps 574 mmHg 76%
    22:00 -16°C° 0 mm 2 mps 574 mmHg 77%
    23:00 -15°C° 0.1 mm 2 mps 575 mmHg 77%

    30 January, Thursday

    Time Temperature Precipitation Wind Pressure Humidity
    00:00 -15°C° 0.1 mm 2 mps 575 mmHg 78%
    01:00 -15°C° 0.1 mm 2 mps 575 mmHg 78%
    02:00 -15°C° 0 mm 2 mps 575 mmHg 78%
    03:00 -15°C° 0 mm 2 mps 576 mmHg 78%
    04:00 -16°C° 0 mm 2 mps 576 mmHg 78%
    05:00 -16°C° 0 mm 2 mps 576 mmHg 78%
    06:00 -16°C° 0 mm 2 mps 576 mmHg 77%
    07:00 -16°C° 0 mm 2 mps 576 mmHg 76%
    08:00 -14°C° 0 mm 2 mps 577 mmHg 71%
    09:00 -13°C° 0 mm 2 mps 578 mmHg 66%
    10:00 -9°C° 0 mm 1 mps 579 mmHg 61%
    11:00 -7°C° 0 mm 1 mps 580 mmHg 58%
    12:00 -6°C° 0 mm 1 mps 580 mmHg 55%
    13:00 -4°C° 0 mm 1 mps 580 mmHg 52%
    14:00 -4°C° 0 mm 1 mps 580 mmHg 58%
    15:00 -6°C° 0 mm 0 mps 579 mmHg 63%
    16:00 -6°C° 0 mm 0 mps 578 mmHg 69%
    17:00 -7°C° 0 mm 0 mps 578 mmHg 67%
    18:00 -8°C° 0 mm 1 mps 578 mmHg 64%
    19:00 -9°C° 0 mm 1 mps 577 mmHg 62%
    20:00 -10°C° 0 mm 1 mps 577 mmHg 60%
    21:00 -10°C° 0 mm 1 mps 577 mmHg 58%
    22:00 -10°C° 0 mm 1 mps 577 mmHg 56%
    23:00 -10°C° 0 mm 1 mps 578 mmHg 56%

    31 January, Friday

    Time Temperature Precipitation Wind Pressure Humidity
    00:00 -9°C° 0 mm 1 mps 578 mmHg 56%
    01:00 -9°C° 0 mm 1 mps 578 mmHg 56%
    02:00 -9°C° 0 mm 1 mps 578 mmHg 56%
    03:00 -9°C° 0 mm 1 mps 578 mmHg 57%
    04:00 -9°C° 0 mm 1 mps 578 mmHg 57%
    05:00 -8°C° 0 mm 1 mps 578 mmHg 59%
    06:00 -8°C° 0 mm 1 mps 578 mmHg 60%
    07:00 -8°C° 0 mm 1 mps 578 mmHg 62%
    08:00 -7°C° 0 mm 1 mps 579 mmHg 64%
    09:00 -5°C° 0 mm 0 mps 579 mmHg 66%
    10:00 -4°C° 0 mm 0 mps 580 mmHg 67%
    11:00 -3°C° 0 mm 0 mps 581 mmHg 70%
    12:00 -2°C° 0 mm 0 mps 581 mmHg 72%
    13:00 -2°C° 0 mm 0 mps 581 mmHg 74%
    14:00 -2°C° 0 mm 0 mps 581 mmHg 77%
    15:00 -2°C° 0 mm 0 mps 581 mmHg 80%
    16:00 -3°C° 0 mm 0 mps 581 mmHg 83%
    17:00 -4°C° 0 mm 0 mps 581 mmHg 83%
    18:00 -4°C° 0 mm 1 mps 580 mmHg 83%
    19:00 -6°C° 0 mm 1 mps 580 mmHg 82%
    20:00 -6°C° 0 mm 1 mps 580 mmHg 82%
    21:00 -6°C° 0 mm 1 mps 580 mmHg 81%
    22:00 -6°C° 0 mm 1 mps 580 mmHg 80%
    23:00 -6°C° 0 mm 1 mps 580 mmHg 79%
    Show more